Home   Weather   Waco   Past weeks

Flag for USA Past Weather in Waco, Texas, USA — Yesterday and Last 2 Weeks

Now
37 °F

Scattered clouds.


Feels Like: 27 °F
Forecast: 31 / 43 °F
Wind: 18 mph from North

Location: Waco Regional Airport

Current Time: Dec 8, 2016 at 12:17:17 pm

Latest Report: Dec 8, 2016 at 10:51 am


Visibility: 10 mi

Pressure: 30.61 "Hg

Humidity: 67%

Dew Point: 27 °F

Location of WacoLocation

Past Weather in Waco — Graph

°F

Waco Temperature Yesterday

Maximum temperature yesterday: 54 °F (at 1:51 pm)
Minimum temperature yesterday: 43 °F (at 7:51 am)
Average temperature yesterday: 50 °F

High & Low Weather Summary for the Past Weeks

 TemperatureHumidityPressure
High76 °F (Nov 28, 12:51 pm)100% (Nov 24, 3:51 am)30.61 "Hg (Nov 24, 3:51 am)
Low31 °F (Dec 1, 4:51 am)23% (Nov 28, 12:51 pm)29.49 "Hg (Nov 28, 1:51 pm)
Average53 °F78%30.02 "Hg
* Reported Nov 23 10:51 am — Dec 8 10:51 am, Waco, Weather by CustomWeather, © 2016

Note: Actual official high and low records may vary slightly from our data, if they occured in-between our weather recording intervals... More about our weather records

Advertising

Waco Weather History for the Previous 24 Hours

Scroll right to see more
 ConditionsComfort  
Time TempWeatherWind HumidityBarometerVisibility
10:51 am
Thu, Dec 8
37 °FScattered clouds.18 mph67%30.61 "Hg10 mi
9:51 am36 °FOvercast.23 mph70%30.60 "Hg10 mi
8:51 am36 °FOvercast.22 mph73%30.56 "Hg10 mi
7:51 am37 °FPartly sunny.22 mph73%30.53 "Hg10 mi
6:51 am38 °FPassing clouds.21 mph63%30.48 "Hg10 mi
5:51 am38 °FClear.18 mph68%30.45 "Hg10 mi
4:51 am39 °FClear.18 mph73%30.43 "Hg10 mi
3:51 am41 °FOvercast.22 mph76%30.41 "Hg10 mi
2:51 am42 °FOvercast.20 mph82%30.38 "Hg10 mi
1:51 am44 °FMostly cloudy.22 mph82%30.36 "Hg10 mi
12:51 am47 °FMostly cloudy.22 mph80%30.32 "Hg10 mi
11:51 pm
Wed, Dec 7
49 °FMostly cloudy.12 mph77%30.29 "Hg10 mi
10:51 pm50 °FMostly cloudy.10 mph77%30.27 "Hg10 mi
9:51 pm51 °FOvercast.12 mph74%30.25 "Hg10 mi
8:51 pm51 °FOvercast.13 mph77%30.22 "Hg10 mi
7:51 pm51 °FOvercast.12 mph83%30.19 "Hg10 mi
6:51 pm52 °FOvercast.6 mph83%30.16 "Hg10 mi
5:51 pm52 °FOvercast.5 mph83%30.13 "Hg10 mi
4:51 pm53 °FOvercast.6 mph77%30.10 "Hg9 mi
3:51 pm54 °FOvercast.8 mph74%30.07 "Hg10 mi
2:51 pm54 °FOvercast.5 mph72%30.04 "Hg10 mi
1:51 pm54 °FOvercast.3 mph72%30.04 "Hg10 mi
12:51 pm53 °FOvercast.5 mph74%30.08 "Hg10 mi
Weather by CustomWeather, © 2016

See weather overviewHow to use our weather pages